Regional Weather Roundup
Issued by NWS

Home | Current Version | Previous Version | Graphics & Text | Print | Product List | Glossary On
Versions: 1 2 3 4 5 6 7 8 9 10 11 12 13 14 15 16 17 18 19 20 21 22 23 24 25 26 27 28 29 30 31 32 33 34 35 36 37 38 39 40 41 42 43 44 45 46 47 48 49 50
000
ASUS43 KOAX 231302
RWRNE

WEATHER ROUNDUP FOR NEBRASKA
NATIONAL WEATHER SERVICE OMAHA NE
800 AM CDT SUN JUL 23 2017

NOTES: SATELLITE DATA IS BEING USED TO AUGMENT CLOUD COVER ABOVE
       12000 FEET.
       "FAIR" INDICATES FEW OR NO CLOUDS BELOW 12,000 FEET WITH NO
       SIGNIFICANT WEATHER AND/OR OBSTRUCTIONS TO VISIBILITY.


NEZ001>004-019>022-054>056-231400-
NEBRASKA PANHANDLE

CITY           SKY/WX    TMP DP  RH WIND       PRES   REMARKS
SCOTTSBLUFF    SUNNY     65  53  65 CALM      30.13R
ALLIANCE       SUNNY     61  52  72 CALM      30.13R
CHADRON        SUNNY     60  52  74 SW6       30.11R
GORDON         FAIR      60  56  84 CALM      30.12S
KIMBALL        SUNNY     62  55  76 W5        30.19R
SIDNEY         SUNNY     64  52  64 W3        30.16R
$$

NEZ057>060-069>072-079>082-231400-
SOUTHWEST NEBRASKA

CITY           SKY/WX    TMP DP  RH WIND       PRES   REMARKS
NORTH PLATTE   SUNNY     62  56  80 W5        30.08R
IMPERIAL       SUNNY     65  55  70 W7        30.09S
LEXINGTON      SUNNY     64  61  91 N5        30.06R FOG
MCCOOK         SUNNY     62  58  86 SW5       30.07R FOG
OGALLALA       SUNNY     60  54  80 W3        30.10R
$$

NEZ005>010-023>029-035>040-094-231400-
NORTH CENTRAL NEBRASKA

CITY           SKY/WX    TMP DP  RH WIND       PRES   REMARKS
VALENTINE      SUNNY     65  47  52 CALM      30.08F
AINSWORTH      SUNNY     64  56  75 CALM      30.08S
BROKEN BOW     SUNNY     67  57  70 CALM      30.05R
O`NEILL        SUNNY     67  63  85 N5        30.03R
ORD            SUNNY     66  61  84 NW6       30.01R
THEDFORD       SUNNY     67  54  62 CALM      30.10R
$$

NEZ041-046>049-061>064-073>077-083>087-231400-
SOUTH CENTRAL NEBRASKA

CITY           SKY/WX    TMP DP  RH WIND       PRES   REMARKS
GRAND ISLAND   SUNNY     69  67  93 SW6       30.02R
AURORA         SUNNY     67  67  99 CALM      30.02R FOG
HASTINGS       SUNNY     69  66  90 W5        30.03R FOG
HEBRON         SUNNY     72  68  88 CALM      30.00R
HOLDREGE       SUNNY     68  66  93 CALM      30.04S FOG
KEARNEY        SUNNY     69  66  90 N8        30.05R
YORK           SUNNY     68  68 100 CALM      30.01R
$$

NEZ011>018-030>034-042>045-231400-
NORTHEAST NEBRASKA

CITY           SKY/WX    TMP DP  RH WIND       PRES   REMARKS
NORFOLK        SUNNY     64  63  96 CALM      29.98R
ALBION         SUNNY     64  62  93 CALM      30.00R
BLAIR          LGT RAIN  70  70  98 N6        29.96R
COLUMBUS       SUNNY     67  64  90 NW3       29.99R
FREMONT        SUNNY     68  66  93 CALM      29.97R FOG
TEKAMAH        SUNNY     69  66  90 CALM      29.95R
WAYNE          SUNNY     66  66  99 CALM      29.98R
$$

NEZ050>053-065>068-078-088>093-231400-
SOUTHEAST NEBRASKA

CITY           SKY/WX    TMP DP  RH WIND       PRES   REMARKS
LINCOLN        SUNNY     71  68  90 W3        29.99R
OMAHA EPPLEY   FOG       70  69  97 CALM      29.95R VSB 1/4
BEATRICE       CLOUDY    73  70  91 NW6       29.99R
FALLS CITY     SUNNY     75  69  81 W5        29.94R
NEBRASKA CITY  SUNNY     73  73 100 N5        29.97R FOG
PLATTSMOUTH    FOG       71  70  97 CALM      29.96S VSB<1/4
$$

NEZ044-045-051>053-067-231400-
OMAHA AREA

CITY           SKY/WX    TMP DP  RH WIND       PRES   REMARKS
OMAHA EPPLEY   FOG       70  69  97 CALM      29.95R VSB 1/4
BLAIR          LGT RAIN  70  70  98 N6        29.96R
FREMONT        SUNNY     68  66  93 CALM      29.97R FOG
MILLARD        SUNNY     74  72  92 CALM      29.96R FOG
OFFUTT AFB     MOSUNNY   72  71  98 CALM      29.95R FOG
PLATTSMOUTH    FOG       71  70  97 CALM      29.96S VSB<1/4
WAHOO          FAIR      68  67  95 CALM      29.97R FOG
$$




USA.gov is the U.S. government's official web portal to all federal, state and local government web resources and services.